OK1PHU-5 Weather Reports


time (UTC)temp
F
wind
direction
speed
knots
gust
knots
rain 1hr
in
rain 24hr
in
rain mn
in
humidity
%
barometer
mb
20260507192753 0 0 0.0 0.0 0.00 0.00 0.00 98 1012.1
20260507191753 0 0 0.0 0.0 0.00 0.00 0.00 97 1012.0
20260507190753 0 0 0.0 0.0 0.00 0.00 0.00 96 1011.8
20260507185753 0 0 0.0 0.0 0.00 0.00 0.00 95 1011.7
20260507184753 0 0 0.0 0.0 0.00 0.00 0.00 94 1011.7
20260507182750 0 0 0.0 0.0 0.00 0.00 0.00 86 1011.0
20260507181750 0 0 0.0 0.0 0.00 0.00 0.00 84 1010.8
20260507180750 0 0 0.0 0.0 0.00 0.00 0.00 82 1010.5
20260507175750 0 0 0.0 0.0 0.00 0.00 0.00 80 1010.3
20260507174750 0 0 0.0 0.0 0.00 0.00 0.00 78 1010.1
20260507172747 0 0 0.0 0.0 0.00 0.00 0.00 73 1009.8
20260507171747 0 0 0.0 0.0 0.00 0.00 0.00 70 1009.5
20260507170747 0 0 0.0 0.0 0.00 0.00 0.00 70 1009.4
20260507165746 0 0 0.0 0.0 0.00 0.00 0.00 71 1009.2
20260507164747 0 0 0.0 0.0 0.00 0.00 0.00 71 1009.3
20260507162743 0 0 0.0 0.0 0.00 0.00 0.00 73 1009.1
20260507161743 0 0 0.0 0.0 0.00 0.00 0.00 73 1009.0
20260507160743 0 0 0.0 0.0 0.00 0.00 0.00 74 1008.8
20260507155743 0 0 0.0 0.0 0.00 0.00 0.00 74 1008.8
20260507154743 0 0 0.0 0.0 0.00 0.00 0.00 73 1008.8
20260507152740 0 0 0.0 0.0 0.00 0.00 0.00 74 1008.9
20260507151740 0 0 0.0 0.0 0.00 0.00 0.00 73 1008.6
20260507150740 0 0 0.0 0.0 0.00 0.00 0.00 74 1008.6
20260507145740 0 0 0.0 0.0 0.00 0.00 0.00 72 1008.3
20260507144740 0 0 0.0 0.0 0.00 0.00 0.00 71 1008.3
20260507142737 0 0 0.0 0.0 0.00 0.00 0.00 69 1008.1
20260507141737 0 0 0.0 0.0 0.00 0.00 0.00 69 1008.2
20260507140737 0 0 0.0 0.0 0.00 0.00 0.00 70 1008.4
20260507135737 0 0 0.0 0.0 0.00 0.00 0.00 71 1008.5
20260507134737 0 0 0.0 0.0 0.00 0.00 0.00 72 1008.4
20260507132734 0 0 0.0 0.0 0.00 0.00 0.00 72 1008.3
20260507131734 0 0 0.0 0.0 0.00 0.00 0.00 71 1008.5
20260507130733 0 0 0.0 0.0 0.00 0.00 0.00 70 1008.3
20260507125733 0 0 0.0 0.0 0.00 0.00 0.00 69 1008.4
20260507124733 0 0 0.0 0.0 0.00 0.00 0.00 68 1008.1
20260507122730 0 0 0.0 0.0 0.00 0.00 0.00 67 1007.9
20260507121730 0 0 0.0 0.0 0.00 0.00 0.00 68 1008.0
20260507120730 0 0 0.0 0.0 0.00 0.00 0.00 71 1008.1
20260507115730 0 0 0.0 0.0 0.00 0.00 0.00 71 1008.0
20260507114730 0 0 0.0 0.0 0.00 0.00 0.00 70 1008.0
20260507113727 0 0 0.0 0.0 0.00 0.00 0.00 70 1008.2
20260507112727 0 0 0.0 0.0 0.00 0.00 0.00 69 1007.8
20260507111727 0 0 0.0 0.0 0.00 0.00 0.00 72 1008.3
20260507110727 0 0 0.0 0.0 0.00 0.00 0.00 70 1008.1
20260507105727 0 0 0.0 0.0 0.00 0.00 0.00 69 1007.7
20260507104727 0 0 0.0 0.0 0.00 0.00 0.00 70 1007.7
20260507102724 0 0 0.0 0.0 0.00 0.00 0.00 71 1007.7
20260507101724 0 0 0.0 0.0 0.00 0.00 0.00 70 1007.8
20260507100724 0 0 0.0 0.0 0.00 0.00 0.00 70 1007.5
20260507095724 0 0 0.0 0.0 0.00 0.00 0.00 70 1007.5
20260507094724 0 0 0.0 0.0 0.00 0.00 0.00 69 1007.0
20260507092721 0 0 0.0 0.0 0.00 0.00 0.00 71 1007.5
20260507091720 0 0 0.0 0.0 0.00 0.00 0.00 75 1007.3
20260507090720 0 0 0.0 0.0 0.00 0.00 0.00 75 1007.7
20260507085720 0 0 0.0 0.0 0.00 0.00 0.00 72 1007.2
20260507084720 0 0 0.0 0.0 0.00 0.00 0.00 73 1006.9
20260507083717 0 0 0.0 0.0 0.00 0.00 0.00 80 1007.6
20260507082717 0 0 0.0 0.0 0.00 0.00 0.00 80 1007.6
20260507081717 0 0 0.0 0.0 0.00 0.00 0.00 80 1007.7
20260507080717 0 0 0.0 0.0 0.00 0.00 0.00 84 1007.5
20260507075717 0 0 0.0 0.0 0.00 0.00 0.00 90 1007.5
20260507074717 0 0 0.0 0.0 0.00 0.00 0.00 95 1008.4
20260507073714 0 0 0.0 0.0 0.00 0.00 0.00 94 1008.3
20260507072714 0 0 0.0 0.0 0.00 0.00 0.00 97 1008.2
20260507071714 0 0 0.0 0.0 0.00 0.00 0.00 98 1008.4
20260507070714 0 0 0.0 0.0 0.00 0.00 0.00 97 1008.4
20260507065714 0 0 0.0 0.0 0.00 0.00 0.00 96 1008.2
20260507064714 0 0 0.0 0.0 0.00 0.00 0.00 96 1008.1
20260507062711 0 0 0.0 0.0 0.00 0.00 0.00 92 1007.5
20260507061711 0 0 0.0 0.0 0.00 0.00 0.00 92 1007.1
20260507060710 0 0 0.0 0.0 0.00 0.00 0.00 90 1007.1
20260507055710 0 0 0.0 0.0 0.00 0.00 0.00 89 1006.6
20260507054710 0 0 0.0 0.0 0.00 0.00 0.00 90 1006.8
20260507052707 0 0 0.0 0.0 0.00 0.00 0.00 93 1006.7
20260507051707 0 0 0.0 0.0 0.00 0.00 0.00 97 1006.7
20260507050707 0 0 0.0 0.0 0.00 0.00 0.00 97 1006.8
20260507045707 0 0 0.0 0.0 0.00 0.00 0.00 99 1006.9
20260507044707 0 0 0.0 0.0 0.00 0.00 0.00 99 1006.8
20260507043704 0 0 0.0 0.0 0.00 0.00 0.00 99 1007.1
20260507042704 0 0 0.0 0.0 0.00 0.00 0.00 99 1007.1
20260507041704 0 0 0.0 0.0 0.00 0.00 0.00 99 1006.9
20260507040704 0 0 0.0 0.0 0.00 0.00 0.00 99 1006.4
20260507035704 0 0 0.0 0.0 0.00 0.00 0.00 99 1006.9
20260507034704 0 0 0.0 0.0 0.00 0.00 0.00 99 1006.9
20260507032701 0 0 0.0 0.0 0.00 0.00 0.00 99 1006.7
20260507031701 0 0 0.0 0.0 0.00 0.00 0.00 99 1006.7
20260507030701 0 0 0.0 0.0 0.00 0.00 0.00 99 1006.7
20260507025701 0 0 0.0 0.0 0.00 0.00 0.00 99 1006.6
20260507024701 0 0 0.0 0.0 0.00 0.00 0.00 99 1006.6
20260507023657 0 0 0.0 0.0 0.00 0.00 0.00 99 1006.5
20260507022657 0 0 0.0 0.0 0.00 0.00 0.00 99 1006.4
20260507021657 0 0 0.0 0.0 0.00 0.00 0.00 99 1006.4
20260507020657 0 0 0.0 0.0 0.00 0.00 0.00 99 1006.4
20260507015657 0 0 0.0 0.0 0.00 0.00 0.00 99 1006.3
20260507014657 0 0 0.0 0.0 0.00 0.00 0.00 99 1006.3
20260507012654 0 0 0.0 0.0 0.00 0.00 0.00 99 1006.0
20260507011654 0 0 0.0 0.0 0.00 0.00 0.00 99 1006.0
20260507010654 0 0 0.0 0.0 0.00 0.00 0.00 99 1005.8
20260507005654 0 0 0.0 0.0 0.00 0.00 0.00 99 1005.7
20260507004654 0 0 0.0 0.0 0.00 0.00 0.00 99 1005.6
20260507002651 0 0 0.0 0.0 0.00 0.00 0.00 99 1005.5
20260507001651 0 0 0.0 0.0 0.00 0.00 0.00 99 1005.2
20260507000651 0 0 0.0 0.0 0.00 0.00 0.00 99 1005.4
20260506235651 0 0 0.0 0.0 0.00 0.00 0.00 99 1005.1
20260506234651 0 0 0.0 0.0 0.00 0.00 0.00 99 1005.1
20260506232648 0 0 0.0 0.0 0.00 0.00 0.00 99 1004.6
20260506231648 0 0 0.0 0.0 0.00 0.00 0.00 99 1004.5
20260506230648 0 0 0.0 0.0 0.00 0.00 0.00 99 1004.6
20260506225648 0 0 0.0 0.0 0.00 0.00 0.00 99 1004.8
20260506224648 0 0 0.0 0.0 0.00 0.00 0.00 99 1004.6
20260506223644 0 0 0.0 0.0 0.00 0.00 0.00 99 1004.4
20260506222644 0 0 0.0 0.0 0.00 0.00 0.00 99 1004.7
20260506221644 0 0 0.0 0.0 0.00 0.00 0.00 99 1004.6
20260506220644 0 0 0.0 0.0 0.00 0.00 0.00 99 1004.5
20260506215644 0 0 0.0 0.0 0.00 0.00 0.00 99 1004.3
20260506214644 0 0 0.0 0.0 0.00 0.00 0.00 99 1004.2
20260506212641 0 0 0.0 0.0 0.00 0.00 0.00 99 1002.9
20260506211641 0 0 0.0 0.0 0.00 0.00 0.00 99 1002.8
20260506210641 0 0 0.0 0.0 0.00 0.00 0.00 99 1002.8
20260506205641 0 0 0.0 0.0 0.00 0.00 0.00 99 1002.7
20260506204641 0 0 0.0 0.0 0.00 0.00 0.00 99 1002.9
20260506202638 0 0 0.0 0.0 0.00 0.00 0.00 99 1003.1
20260506201638 0 0 0.0 0.0 0.00 0.00 0.00 99 1003.0
20260506200638 0 0 0.0 0.0 0.00 0.00 0.00 99 1003.2
20260506195638 0 0 0.0 0.0 0.00 0.00 0.00 99 1003.3
20260506194638 0 0 0.0 0.0 0.00 0.00 0.00 99 1003.1